When you browse on this site, cookies collect data to enhance your experience and personalize the content and advertising you see.
Visit our Privacy Policy to learn more. By continuing to use the site, you agree to this use of cookies and data.
  • In Deutschland
  • Länderverzeichnis
  • Für 7 Tage
  • Wassertemperatur
  • Satellitenkarten
  • Wetterkarte
  • Widgets
  • user-avatar
    Anmelden

    Stündliche Wetter Ghanzi

    Heute, 12 Dezember, Mittwoch

    Zeit Temperatur Niederschläge Wind Luftdruck Luftfeuchtigkeit
    00:00 +13°C° 0 mm 3 m/S 720 mmHg 33%
    01:00 +12°C° 0 mm 3 m/S 720 mmHg 34%
    02:00 +12°C° 0 mm 3 m/S 720 mmHg 35%
    03:00 +12°C° 0 mm 3 m/S 720 mmHg 36%
    04:00 +11°C° 0 mm 3 m/S 720 mmHg 37%
    05:00 +11°C° 0 mm 3 m/S 720 mmHg 38%
    06:00 +11°C° 0 mm 3 m/S 720 mmHg 38%
    07:00 +11°C° 0 mm 3 m/S 721 mmHg 38%
    08:00 +14°C° 0 mm 3 m/S 721 mmHg 33%
    09:00 +17°C° 0 mm 3 m/S 721 mmHg 29%
    10:00 +19°C° 0 mm 3 m/S 722 mmHg 25%
    11:00 +20°C° 0 mm 3 m/S 721 mmHg 22%
    12:00 +21°C° 0 mm 3 m/S 721 mmHg 20%
    13:00 +22°C° 0 mm 3 m/S 720 mmHg 17%
    14:00 +22°C° 0 mm 3 m/S 720 mmHg 17%
    15:00 +22°C° 0 mm 3 m/S 720 mmHg 17%
    16:00 +22°C° 0 mm 3 m/S 720 mmHg 16%
    17:00 +20°C° 0 mm 3 m/S 720 mmHg 19%
    18:00 +19°C° 0 mm 3 m/S 720 mmHg 21%
    19:00 +17°C° 0 mm 3 m/S 720 mmHg 24%
    20:00 +16°C° 0 mm 3 m/S 720 mmHg 26%
    21:00 +16°C° 0 mm 3 m/S 720 mmHg 28%
    22:00 +14°C° 0 mm 3 m/S 721 mmHg 30%
    23:00 +14°C° 0 mm 3 m/S 720 mmHg 32%

    Morgen, 13 Dezember, Donnerstag

    Zeit Temperatur Niederschläge Wind Luftdruck Luftfeuchtigkeit
    00:00 +13°C° 0 mm 3 m/S 720 mmHg 34%
    01:00 +13°C° 0 mm 3 m/S 720 mmHg 36%
    02:00 +12°C° 0 mm 3 m/S 720 mmHg 38%
    03:00 +12°C° 0 mm 3 m/S 720 mmHg 41%
    04:00 +11°C° 0 mm 3 m/S 720 mmHg 43%
    05:00 +11°C° 0 mm 3 m/S 720 mmHg 43%
    06:00 +11°C° 0 mm 3 m/S 720 mmHg 44%
    07:00 +11°C° 0 mm 3 m/S 721 mmHg 44%
    08:00 +14°C° 0 mm 3 m/S 721 mmHg 39%
    09:00 +17°C° 0 mm 3 m/S 721 mmHg 33%
    10:00 +19°C° 0 mm 3 m/S 721 mmHg 27%
    11:00 +20°C° 0 mm 2 m/S 721 mmHg 24%
    12:00 +21°C° 0 mm 2 m/S 720 mmHg 21%
    13:00 +23°C° 0 mm 1 m/S 719 mmHg 18%
    14:00 +23°C° 0 mm 1 m/S 719 mmHg 18%
    15:00 +23°C° 0 mm 1 m/S 719 mmHg 17%
    16:00 +23°C° 0 mm 1 m/S 718 mmHg 17%
    17:00 +21°C° 0 mm 1 m/S 718 mmHg 19%
    18:00 +19°C° 0 mm 2 m/S 719 mmHg 21%
    19:00 +17°C° 0 mm 2 m/S 719 mmHg 24%
    20:00 +17°C° 0 mm 2 m/S 719 mmHg 25%
    21:00 +16°C° 0 mm 2 m/S 719 mmHg 26%
    22:00 +16°C° 0 mm 3 m/S 719 mmHg 27%
    23:00 +15°C° 0 mm 2 m/S 719 mmHg 28%

    übermorgen, 14 Dezember, Freitag

    Zeit Temperatur Niederschläge Wind Luftdruck Luftfeuchtigkeit
    00:00 +15°C° 0 mm 2 m/S 719 mmHg 30%
    01:00 +14°C° 0 mm 2 m/S 718 mmHg 32%
    02:00 +13°C° 0 mm 2 m/S 718 mmHg 33%
    03:00 +13°C° 0 mm 2 m/S 718 mmHg 34%
    04:00 +13°C° 0 mm 2 m/S 718 mmHg 35%
    05:00 +13°C° 0 mm 2 m/S 718 mmHg 34%
    06:00 +13°C° 0 mm 2 m/S 719 mmHg 33%
    07:00 +13°C° 0 mm 2 m/S 719 mmHg 33%
    08:00 +16°C° 0 mm 3 m/S 719 mmHg 29%
    09:00 +18°C° 0 mm 3 m/S 720 mmHg 24%
    10:00 +20°C° 0 mm 3 m/S 720 mmHg 20%
    11:00 +21°C° 0 mm 3 m/S 719 mmHg 19%
    12:00 +22°C° 0 mm 3 m/S 718 mmHg 17%
    13:00 +24°C° 0 mm 2 m/S 718 mmHg 15%
    14:00 +24°C° 0 mm 2 m/S 717 mmHg 15%
    15:00 +24°C° 0 mm 2 m/S 717 mmHg 15%
    16:00 +24°C° 0 mm 1 m/S 717 mmHg 15%
    17:00 +22°C° 0 mm 1 m/S 717 mmHg 17%
    18:00 +19°C° 0 mm 2 m/S 717 mmHg 19%
    19:00 +17°C° 0 mm 2 m/S 717 mmHg 21%
    20:00 +17°C° 0 mm 2 m/S 717 mmHg 22%
    21:00 +17°C° 0 mm 2 m/S 717 mmHg 23%
    22:00 +16°C° 0 mm 2 m/S 717 mmHg 23%
    23:00 +15°C° 0 mm 2 m/S 717 mmHg 25%

    15 Dezember, Samstag

    Zeit Temperatur Niederschläge Wind Luftdruck Luftfeuchtigkeit
    00:00 +15°C° 0 mm 2 m/S 717 mmHg 26%
    01:00 +14°C° 0 mm 2 m/S 716 mmHg 28%
    02:00 +14°C° 0 mm 2 m/S 716 mmHg 29%
    03:00 +13°C° 0 mm 2 m/S 716 mmHg 30%
    04:00 +13°C° 0 mm 2 m/S 716 mmHg 31%
    05:00 +13°C° 0 mm 2 m/S 716 mmHg 30%
    06:00 +14°C° 0 mm 2 m/S 717 mmHg 29%
    07:00 +14°C° 0 mm 2 m/S 717 mmHg 29%
    08:00 +16°C° 0 mm 2 m/S 717 mmHg 25%
    09:00 +18°C° 0 mm 3 m/S 717 mmHg 22%
    10:00 +21°C° 0 mm 3 m/S 718 mmHg 18%
    11:00 +23°C° 0 mm 2 m/S 717 mmHg 16%
    12:00 +24°C° 0 mm 2 m/S 716 mmHg 15%
    13:00 +25°C° 0 mm 2 m/S 716 mmHg 13%
    14:00 +25°C° 0 mm 1 m/S 715 mmHg 13%
    15:00 +24°C° 0 mm 1 m/S 715 mmHg 13%
    16:00 +22°C° 0 mm 0 m/S 715 mmHg 13%
    17:00 +20°C° 0 mm 0 m/S 715 mmHg 15%
    18:00 +20°C° 0 mm 1 m/S 715 mmHg 17%
    19:00 +18°C° 0 mm 1 m/S 716 mmHg 19%
    20:00 +17°C° 0 mm 2 m/S 716 mmHg 19%
    21:00 +17°C° 0 mm 2 m/S 717 mmHg 19%
    22:00 +17°C° 0 mm 3 m/S 717 mmHg 20%
    23:00 +15°C° 0 mm 4 m/S 717 mmHg 20%

    16 Dezember, Sonntag

    Zeit Temperatur Niederschläge Wind Luftdruck Luftfeuchtigkeit
    00:00 +15°C° 0 mm 4 m/S 717 mmHg 20%
    01:00 +14°C° 0 mm 5 m/S 716 mmHg 20%
    02:00 +13°C° 0 mm 6 m/S 717 mmHg 22%
    03:00 +13°C° 0 mm 6 m/S 717 mmHg 25%
    04:00 +11°C° 0 mm 6 m/S 717 mmHg 28%
    05:00 +11°C° 0 mm 6 m/S 717 mmHg 29%
    06:00 +11°C° 0 mm 6 m/S 718 mmHg 30%
    07:00 +11°C° 0 mm 6 m/S 719 mmHg 31%
    08:00 +12°C° 0 mm 7 m/S 719 mmHg 30%
    09:00 +15°C° 0 mm 8 m/S 719 mmHg 29%
    10:00 +17°C° 0 mm 8 m/S 720 mmHg 29%
    11:00 +18°C° 0 mm 8 m/S 719 mmHg 27%
    12:00 +20°C° 0 mm 8 m/S 719 mmHg 26%
    13:00 +21°C° 0 mm 8 m/S 718 mmHg 24%
    14:00 +21°C° 0 mm 7 m/S 718 mmHg 24%
    15:00 +21°C° 0 mm 7 m/S 718 mmHg 24%
    16:00 +20°C° 0 mm 6 m/S 718 mmHg 24%
    17:00 +19°C° 0 mm 6 m/S 719 mmHg 27%
    18:00 +16°C° 0 mm 5 m/S 719 mmHg 29%
    19:00 +15°C° 0 mm 4 m/S 720 mmHg 31%
    20:00 +14°C° 0 mm 4 m/S 720 mmHg 34%
    21:00 +14°C° 0 mm 5 m/S 720 mmHg 36%
    22:00 +13°C° 0 mm 5 m/S 721 mmHg 38%
    23:00 +12°C° 0 mm 4 m/S 720 mmHg 43%

    17 Dezember, Montag

    Zeit Temperatur Niederschläge Wind Luftdruck Luftfeuchtigkeit
    00:00 +12°C° 0 mm 4 m/S 720 mmHg 49%
    01:00 +11°C° 0 mm 4 m/S 720 mmHg 54%
    02:00 +11°C° 0 mm 4 m/S 720 mmHg 57%
    03:00 +10°C° 0 mm 4 m/S 720 mmHg 60%
    04:00 +10°C° 0 mm 4 m/S 720 mmHg 62%
    05:00 +10°C° 0 mm 4 m/S 720 mmHg 61%
    06:00 +10°C° 0 mm 4 m/S 721 mmHg 60%
    07:00 +10°C° 0 mm 4 m/S 721 mmHg 59%
    08:00 +12°C° 0 mm 5 m/S 722 mmHg 53%
    09:00 +14°C° 0 mm 6 m/S 722 mmHg 46%
    10:00 +16°C° 0 mm 7 m/S 722 mmHg 40%
    11:00 +17°C° 0 mm 7 m/S 722 mmHg 37%
    12:00 +18°C° 0 mm 7 m/S 721 mmHg 33%
    13:00 +20°C° 0 mm 7 m/S 721 mmHg 30%
    14:00 +20°C° 0 mm 7 m/S 721 mmHg 30%
    15:00 +20°C° 0 mm 7 m/S 720 mmHg 31%
    16:00 +20°C° 0 mm 6 m/S 720 mmHg 32%
    17:00 +17°C° 0 mm 6 m/S 721 mmHg 37%
    18:00 +16°C° 0 mm 5 m/S 721 mmHg 41%
    19:00 +15°C° 0 mm 5 m/S 721 mmHg 46%
    20:00 +14°C° 0 mm 5 m/S 722 mmHg 50%
    21:00 +13°C° 0 mm 5 m/S 722 mmHg 53%
    22:00 +13°C° 0 mm 5 m/S 722 mmHg 57%
    23:00 +12°C° 0 mm 5 m/S 722 mmHg 61%
    Mehr zeigen